RH
27 29 30 31 32 33 35 37 39 43 46 49 51 52 54 55 56 57 58 59 59 59 59 58 57 56 55 55 53 51 49 48 46 45 43 42 40 39 41 43 45 49
28 30 31 32 33 34 35 37 39 41 43 46 49 51 52 54 56 58 60 62 64 64 63 63 62 61 61 60 59 56 54 51 50 48 46 44 43 41 40 39 39 41
28 30 32 34 34 35 37 38 40 41 43 45 47 49 51 53 55 57 60 63 65 67 67 68 68 67 67 67 66 63 58 55 53 52 50 48 46 44 42 40 39 38
28 29 31 34 35 36 38 40 42 43 45 47 48 49 51 53 55 56 59 62 64 66 68 70 72 72 73 73 73 70 65 61 58 56 53 51 49 47 46 44 43 41
27 29 31 33 35 37 39 41 43 45 47 50 51 53 54 55 57 58 60 62 63 64 67 70 73 75 78 79 78 77 74 68 64 62 59 55 53 51 49 47 46 45
27 29 30 32 34 36 38 41 43 46 48 50 52 54 56 57 59 61 62 64 64 65 66 69 72 75 81 84 83 82 81 77 72 68 65 62 59 55 53 51 48 47
27 28 30 32 34 35 37 40 43 46 48 50 52 54 56 59 61 63 64 66 67 67 68 69 71 74 80 86 87 85 85 83 78 74 71 68 65 62 59 56 54 51
27 28 30 32 33 35 37 39 41 44 47 49 51 53 55 58 61 63 65 67 69 69 69 69 71 73 77 85 89 89 87 86 83 78 75 71 69 66 63 60 57 54
28 29 29 31 33 35 37 38 41 43 45 46 47 49 51 53 56 60 64 67 70 71 70 69 71 73 75 81 88 91 89 87 85 81 77 73 71 68 66 64 62 59
32 30 30 31 33 35 37 39 40 42 43 44 45 46 48 49 52 56 60 64 68 71 71 71 71 73 75 78 83 89 91 88 86 83 77 72 67 65 64 63 61 58
37 33 32 32 33 35 38 40 41 42 44 44 45 46 47 50 52 54 57 60 65 70 72 72 72 74 76 77 78 84 90 91 88 84 80 73 67 63 61 58 55 52
42 38 36 35 35 35 38 41 43 44 44 45 46 46 48 50 53 55 57 59 62 67 70 72 73 74 76 77 77 78 84 90 90 86 83 79 74 68 63 59 55 51
46 44 41 38 37 37 38 41 44 45 46 46 46 47 48 51 54 56 58 59 60 63 67 71 73 75 76 78 77 74 76 83 88 88 86 84 80 75 70 64 59 55
47 48 47 44 41 40 39 40 44 47 48 48 47 47 48 51 55 57 58 59 60 61 64 68 72 75 77 78 77 74 72 74 80 85 86 86 85 82 77 72 65 60
48 49 49 49 47 45 43 42 43 47 50 50 49 48 48 50 54 58 59 60 61 62 64 66 68 71 76 79 79 77 72 69 71 77 81 83 84 85 83 80 74 68
48 48 49 51 51 50 49 47 46 46 49 53 53 51 50 50 53 57 60 61 61 62 65 68 67 67 71 77 81 80 76 71 69 70 73 76 78 80 82 81 79 75
50 49 48 49 51 52 53 52 51 50 50 53 56 56 54 52 53 55 58 60 62 64 66 68 70 69 69 73 78 81 79 75 71 69 70 71 72 73 76 77 76 73
50 50 50 49 49 51 53 54 55 54 53 53 56 59 59 56 55 56 57 58 61 65 66 67 69 71 71 71 74 76 78 77 75 72 71 71 71 71 71 73 74 74
49 50 50 50 49 49 51 55 56 56 56 56 57 60 62 62 61 58 57 58 60 63 67 68 69 71 72 72 73 74 75 76 76 76 74 72 72 71 70 71 72 74
48 48 49 50 50 48 48 52 56 57 58 58 58 59 62 66 68 65 61 59 58 61 65 68 70 72 72 72 73 73 73 74 76 77 77 76 75 74 73 72 70 71
49 48 48 49 50 49 47 48 52 57 60 60 59 59 61 65 70 73 71 65 60 61 66 69 71 73 73 73 73 72 71 72 74 76 76 75 75 74 74 73 71 71
49 49 48 48 49 49 48 47 48 53 58 62 61 60 61 62 67 74 79 77 69 65 68 71 71 72 73 72 71 71 70 71 73 76 76 74 73 73 74 74 73 74
50 48 48 49 48 48 48 48 47 49 53 59 62 63 63 63 65 70 78 83 81 76 74 74 72 73 74 73 70 70 71 71 72 74 75 74 74 74 75 78 78 78
53 49 48 49 49 48 48 48 48 49 50 54 59 64 65 65 66 69 74 81 87 88 86 82 78 76 75 73 71 70 70 70 70 72 74 74 74 73 73 77 81 80
56 51 47 48 49 49 49 48 48 48 49 51 55 61 67 69 68 70 73 77 83 90 93 93 91 88 84 78 74 72 70 70 70 72 75 76 75 73 71 74 78 80
59 54 48 46 48 50 50 49 48 48 49 52 53 58 66 70 71 73 75 76 80 87 92 96 98 98 94 89 84 79 75 73 72 73 77 79 78 75 72 72 76 80